GFSGBSN_700_rhum_057.txt.gz
RH
19 21 26 37 26 6 5 8 15 13 20 23 22 18 14 11 10 8 6 6 8 11 20 22 25 31 31 28 22 28 24 24 18 11 11 10 13 19 25 29 31 30 22 25 26 24 26
4 4 4 4 10 38 33 36 21 6 4 6 11 16 20 20 17 13 10 8 7 7 7 12 16 22 25 26 26 26 25 24 21 12 11 10 13 30 34 36 33 30 24 24 24 25 26
4 4 4 4 5 4 25 32 48 48 36 4 2 4 7 9 13 16 15 11 8 7 7 5 7 12 23 25 22 25 24 23 21 11 12 12 14 36 36 34 31 34 32 29 23 24 30
2 2 2 2 3 3 3 3 5 17 39 48 29 3 2 2 7 9 9 12 9 9 7 4 4 4 21 20 22 21 22 22 23 12 11 14 32 34 33 35 30 36 31 29 20 21 30
2 2 2 3 4 3 4 3 3 3 3 4 9 18 13 4 2 3 7 7 5 7 7 4 4 4 19 16 17 21 20 23 24 13 15 29 38 37 29 25 35 31 31 26 23 23 29
3 3 4 7 9 7 8 7 7 5 4 3 3 3 3 4 3 2 2 6 3 4 3 7 6 11 14 17 19 21 22 22 26 19 21 27 29 27 20 30 38 30 32 27 25 25 32
2 3 4 9 12 12 12 12 11 12 11 9 8 5 4 3 3 3 2 3 4 4 7 11 15 13 15 19 24 25 23 26 27 39 27 32 22 16 11 20 32 34 35 28 22 30 34
2 2 3 6 10 11 14 15 14 14 15 17 16 14 10 6 4 3 3 3 4 20 10 8 11 14 18 23 29 17 29 28 31 44 46 41 31 13 16 33 34 36 34 29 24 36 33
2 2 3 5 7 10 12 14 14 14 15 17 18 18 18 16 11 7 2 3 5 7 8 4 4 6 15 12 18 18 32 24 27 48 46 44 17 18 34 35 35 36 32 27 24 30 30
2 2 3 4 6 10 14 14 15 17 19 24 22 21 19 19 19 14 6 3 4 4 6 3 2 4 6 13 9 11 18 28 42 40 35 46 36 34 38 38 36 35 30 25 22 31 34
2 3 6 9 13 16 16 18 24 38 45 49 49 42 26 19 24 23 32 4 5 4 42 5 20 20 19 17 19 16 16 38 32 37 48 36 40 37 36 37 37 34 32 31 29 28 27
4 9 14 18 18 17 20 38 57 59 59 55 57 57 49 33 20 37 96 69 20 19 84 6 24 24 21 24 21 25 20 32 36 36 46 40 33 36 36 35 35 33 34 32 32 35 40
7 13 18 19 19 33 46 63 70 68 64 63 62 62 61 56 28 36 91 86 68 57 10 10 29 32 25 33 36 32 33 37 43 45 45 41 39 36 34 34 33 33 33 42 50 50 57
15 17 18 19 41 70 72 75 76 74 74 71 70 73 67 64 36 48 69 87 97 23 20 16 30 46 31 30 48 36 42 40 41 43 42 45 43 38 32 32 32 33 34 40 56 70 58
22 22 23 38 68 76 77 76 81 82 84 86 92 98 76 69 40 68 97 99 70 46 30 13 22 26 36 42 47 53 42 41 46 39 41 39 42 37 33 30 33 37 36 34 37 46 56
25 41 63 79 80 79 79 81 83 84 90 99 100 100 100 97 54 90 100 92 45 22 28 24 30 26 30 44 50 51 53 45 43 48 35 38 38 34 33 29 34 35 38 42 40 59 64
48 70 86 87 87 88 87 87 89 93 98 99 98 98 94 99 94 87 80 34 22 30 57 34 28 28 31 39 43 75 48 43 37 42 40 36 35 33 32 32 33 36 35 34 42 47 65
73 83 86 90 90 92 92 92 88 95 100 98 98 98 100 96 97 75 52 41 40 37 40 36 28 36 33 37 43 41 53 59 37 39 38 39 36 39 33 34 34 35 34 32 43 53 47
81 84 85 90 95 96 92 90 89 95 98 98 98 100 100 96 88 73 52 40 44 56 66 63 58 28 25 39 51 51 65 51 55 50 38 38 36 39 40 35 37 35 33 33 33 36 47
85 85 86 88 89 90 89 83 86 96 99 98 98 98 98 96 77 65 53 43 48 78 53 52 54 59 37 49 44 50 57 62 61 52 46 36 36 34 45 43 39 37 32 32 34 37 39
95 93 90 90 92 90 88 82 90 100 98 98 97 96 96 98 72 80 92 83 68 68 65 60 46 25 31 51 50 50 56 64 75 54 44 36 38 34 35 39 39 43 40 36 35 37 45
96 93 91 89 87 89 91 100 100 100 98 97 97 97 100 86 99 92 95 71 67 67 68 61 53 25 44 58 52 54 58 73 92 65 54 51 42 38 36 37 40 45 40 46 35 40 44
90 87 85 86 92 99 100 96 98 93 97 97 97 99 100 95 100 100 64 42 50 73 66 85 72 51 30 42 52 51 60 61 72 88 69 78 52 46 47 45 43 46 40 41 45 37 32
89 86 85 85 85 89 93 97 100 90 95 97 97 98 99 96 98 77 65 57 60 93 93 66 87 77 22 44 57 60 62 61 86 58 76 96 72 49 50 48 62 47 40 36 35 34 32
61 54 51 53 60 62 60 50 61 64 71 97 97 98 99 98 91 76 70 65 58 66 71 76 59 55 65 45 48 65 71 71 67 87 84 99 98 58 59 54 46 45 41 34 34 33 31
70 76 78 80 76 78 84 90 81 78 68 74 98 97 97 97 96 72 68 70 70 65 57 65 60 59 73 55 48 53 73 68 63 62 83 86 99 55 73 68 65 52 43 36 38 36 34
82 70 63 61 64 72 90 100 100 100 100 84 94 93 97 97 95 89 80 70 67 70 63 62 57 69 67 69 55 63 80 82 74 59 63 82 98 85 97 95 67 55 46 38 42 41 32
74 71 70 72 72 71 76 87 92 97 97 97 87 68 64 90 94 96 91 71 81 87 69 58 86 75 64 63 60 70 70 74 75 64 53 50 54 57 93 98 91 53 46 42 43 39 35
82 74 74 79 83 79 86 88 88 98 96 97 97 89 80 94 97 77 92 79 95 90 77 77 83 67 60 60 60 64 63 59 55 62 53 48 42 43 43 51 66 63 55 57 60 51 52

GFSGBSN_700_rhum_063.txt.gz
RH
14 18 19 17 12 7 6 8 17 29 38 23 15 23 25 31 27 25 23 19 17 18 17 16 18 22 20 25 27 26 24 22 23 26 25 18 13 10 11 14 24 31 29 28 31 31 26
6 5 9 16 9 8 7 8 13 9 13 35 39 25 25 19 31 13 23 24 25 25 27 23 23 25 26 26 20 21 24 26 26 26 26 22 14 12 11 14 23 32 30 27 29 29 26
5 5 4 4 5 11 18 17 20 12 6 6 15 40 30 35 34 45 4 6 9 13 25 28 29 30 34 31 25 19 23 24 24 25 26 26 15 13 12 17 27 30 25 21 24 28 26
4 4 3 3 3 3 4 6 9 28 30 29 14 4 20 38 49 42 32 8 2 4 8 11 16 28 35 31 30 22 15 20 24 24 26 23 15 14 18 26 24 25 26 23 25 27 28
5 4 3 3 2 2 2 2 2 2 3 18 8 5 4 4 10 41 47 48 40 11 3 4 7 11 32 28 32 30 24 19 17 21 23 23 16 15 19 30 27 26 22 20 23 31 34
5 5 4 3 3 3 3 3 3 3 4 4 5 8 5 5 4 4 23 44 46 34 14 5 3 6 17 22 21 21 22 18 15 19 23 27 19 23 19 30 21 19 27 20 30 34 33
5 5 4 4 4 3 3 2 2 3 4 4 7 8 9 10 9 8 5 4 15 30 15 8 7 2 4 13 20 21 19 22 14 13 20 28 23 22 15 16 16 20 24 24 35 35 37
3 4 4 4 4 5 4 3 2 2 2 3 5 6 8 11 13 12 10 9 4 18 22 9 10 28 18 3 17 25 25 25 21 14 21 34 25 24 20 21 22 27 21 19 34 36 36
2 3 3 4 5 5 5 4 3 3 2 3 5 7 7 10 13 14 14 15 13 10 8 10 8 6 18 11 6 6 31 27 28 21 22 30 26 26 24 21 22 20 18 29 36 35 33
3 3 4 5 5 6 5 5 4 3 3 3 4 8 11 13 14 16 17 17 18 18 18 2 2 3 3 4 5 5 11 27 32 33 29 40 28 28 32 25 20 21 22 35 37 40 35
4 4 5 6 6 7 6 6 5 4 4 6 8 12 15 20 28 24 23 21 21 35 23 2 4 3 11 11 6 4 3 17 34 28 32 40 31 32 37 26 31 22 34 38 40 42 38
5 5 6 6 7 8 7 6 4 4 6 12 15 19 26 41 40 46 30 26 51 29 64 2 12 14 7 22 16 14 9 5 20 32 39 40 35 40 32 31 32 33 38 38 41 41 48
7 6 7 8 8 8 8 6 4 5 12 17 20 29 53 59 54 60 34 51 91 94 9 11 41 40 29 28 28 18 29 6 26 46 45 41 36 43 43 37 36 41 42 49 52 51 53
9 10 11 11 11 9 8 6 6 8 16 22 45 63 67 68 72 62 37 97 99 54 27 29 34 38 45 37 36 29 39 16 22 42 39 44 38 32 34 39 35 37 38 47 59 63 52
14 15 14 12 11 9 8 7 11 16 22 67 100 100 87 75 78 65 41 100 88 82 50 31 24 25 34 45 49 43 36 36 12 39 44 41 40 30 30 28 40 36 43 39 40 45 60
16 14 12 10 10 10 11 15 19 30 61 100 98 97 86 97 94 75 50 98 99 75 55 34 30 26 33 35 56 56 52 60 41 28 39 42 48 40 37 39 38 41 39 40 44 58 66
9 8 9 10 14 17 20 23 26 54 100 99 98 99 82 99 99 92 70 97 100 87 50 32 40 28 31 34 38 44 58 62 69 65 43 42 47 42 34 41 38 42 42 41 40 38 52
10 13 16 21 24 27 26 26 35 67 100 98 98 98 99 97 100 86 81 82 93 82 71 66 41 38 31 30 33 37 43 41 55 58 65 65 60 51 45 34 32 38 38 38 43 52 44
33 35 35 33 33 29 24 28 52 89 99 98 98 99 98 96 96 91 94 76 82 92 78 70 62 52 45 54 46 35 28 42 51 58 78 78 78 70 56 49 46 47 38 42 42 40 42
41 38 35 32 25 20 22 44 71 91 98 98 98 98 98 98 84 80 97 93 95 71 74 77 66 55 63 62 60 48 34 42 41 47 64 73 91 100 90 63 48 43 38 36 39 40 43
20 24 22 22 19 26 46 65 85 97 98 98 97 96 93 97 95 88 93 85 75 91 97 73 76 64 66 81 71 59 44 42 33 55 71 68 84 91 97 83 66 53 47 38 37 38 42
81 79 76 74 62 58 68 83 92 99 98 97 97 95 100 92 100 94 90 72 100 100 99 81 81 66 75 68 64 59 55 56 54 53 56 82 70 73 72 85 72 69 49 44 41 42 41
93 96 97 98 99 96 94 93 98 99 97 97 96 92 100 98 100 100 70 97 100 100 100 85 84 82 87 72 70 64 66 70 49 55 58 80 78 67 67 64 94 65 57 55 44 43 42
96 96 96 96 96 96 97 98 99 99 97 95 89 92 100 99 92 84 100 99 89 95 96 84 86 87 64 86 89 90 86 72 50 49 85 94 89 85 64 67 89 70 62 61 52 44 39
94 97 96 96 96 96 96 96 96 97 97 96 96 97 96 100 100 100 99 100 99 86 98 88 78 72 74 90 94 92 80 69 54 72 80 74 80 84 65 70 54 34 51 59 58 48 45
100 98 98 100 100 96 96 96 96 96 97 97 96 99 100 100 99 100 99 97 93 96 98 83 69 70 75 79 97 97 84 63 62 85 63 68 100 100 100 89 84 30 31 29 56 75 50
99 99 98 98 98 98 97 96 96 96 97 96 96 94 99 98 98 96 93 92 97 98 92 81 64 68 66 81 100 100 94 82 66 79 96 98 100 99 100 86 67 42 29 33 82 72 54
95 94 95 96 93 83 80 84 92 96 96 97 97 96 96 98 97 97 95 96 89 100 92 79 82 72 76 79 90 96 92 87 79 68 61 78 84 87 99 93 80 54 71 67 98 93 68
96 96 97 97 98 100 97 100 100 92 88 96 96 95 96 98 95 93 94 96 97 98 95 92 73 56 51 58 65 80 71 83 77 73 72 65 60 59 60 50 46 55 51 57 69 95 90

GFSGBSN_700_rhum_069.txt.gz
RH
7 7 7 9 11 12 10 11 20 24 20 14 6 8 17 18 18 27 40 36 26 33 33 30 29 26 22 22 29 13 22 30 29 28 25 16 13 15 15 14 14 15 13 13 20 20 22
7 7 7 6 6 6 5 5 5 5 7 9 13 14 16 17 15 9 9 15 33 30 25 26 23 29 31 29 29 22 17 14 28 42 35 31 29 29 23 16 14 16 15 15 14 19 24
7 7 7 6 6 6 5 5 4 4 4 5 10 18 18 21 27 28 26 21 6 27 44 42 38 31 18 37 32 26 23 15 12 16 28 32 29 32 28 21 16 16 16 14 15 19 21
5 5 5 5 5 5 4 4 3 3 3 3 3 3 3 4 4 15 32 35 11 10 12 18 40 44 40 28 30 37 33 25 17 16 18 20 26 33 30 24 19 19 20 17 12 27 27
5 5 5 5 5 5 5 4 4 3 3 2 2 2 2 2 2 2 3 12 13 6 7 16 16 31 50 45 34 30 30 36 22 14 20 24 32 36 33 30 23 24 26 20 14 16 22
4 4 3 4 4 4 4 4 4 4 3 3 2 2 2 2 2 2 2 2 3 2 6 5 7 11 38 42 21 22 24 29 33 18 15 30 41 39 35 37 28 22 19 16 14 14 20
3 3 3 3 3 3 3 3 4 3 3 3 3 2 2 2 2 2 2 2 3 3 3 7 6 3 13 34 31 17 21 21 28 24 11 18 41 34 26 26 25 22 22 20 18 19 20
4 4 4 3 3 3 2 2 3 3 3 2 3 3 3 3 2 2 2 2 3 5 2 4 4 4 4 11 34 20 14 19 24 34 20 29 31 26 31 30 27 23 23 21 16 17 20
5 5 5 4 4 4 3 3 3 3 3 3 3 4 4 2 3 3 3 4 5 8 11 2 4 6 6 9 9 25 23 25 31 30 38 21 22 19 27 32 30 28 25 22 19 21 22
8 7 6 6 6 5 4 4 3 4 3 4 4 4 5 3 3 4 6 8 15 24 22 8 8 11 11 8 6 5 32 27 21 36 37 39 21 25 26 27 29 30 27 27 24 31 29
8 7 8 7 6 6 6 5 4 4 4 4 5 5 4 4 4 6 12 13 31 34 42 8 7 22 32 22 12 11 12 17 18 21 40 40 28 20 32 31 36 31 35 31 28 30 35
8 7 7 7 7 6 7 7 6 6 5 5 6 6 5 5 5 12 16 43 46 83 60 12 28 44 38 36 21 20 35 13 20 24 22 38 37 35 26 21 28 37 38 36 35 45 51
7 6 6 6 6 6 6 8 8 7 7 7 8 7 6 6 9 23 41 64 70 93 24 27 40 32 35 45 43 35 32 34 28 38 40 41 26 40 40 45 42 41 47 46 56 60 49
10 8 8 6 6 5 6 8 9 10 10 10 10 9 9 8 13 32 66 81 98 63 51 35 29 29 42 54 53 43 41 44 34 29 29 45 44 35 46 46 41 40 46 47 46 55 45
9 11 12 12 11 10 10 10 11 12 13 13 12 13 10 13 24 82 96 96 74 71 61 48 32 30 40 48 60 44 63 63 35 35 27 33 38 22 29 32 43 48 57 45 48 54 56
4 4 5 10 14 15 14 14 14 15 15 15 18 24 32 66 77 100 100 99 76 96 84 48 50 41 37 45 53 65 69 75 78 43 53 44 44 39 37 38 46 49 44 51 54 51 50
3 4 4 4 7 11 12 14 15 14 17 53 48 84 62 80 97 99 98 97 97 71 81 63 63 54 50 37 37 35 72 77 76 79 40 50 48 49 49 46 44 54 52 46 44 44 45
4 3 5 25 7 5 6 8 11 14 61 78 82 95 82 79 100 98 99 99 95 79 66 66 56 64 70 62 44 36 44 53 67 75 79 62 48 42 42 44 48 49 52 52 53 49 53
5 4 5 36 34 10 10 15 18 30 71 69 83 78 78 92 99 94 97 95 84 73 78 71 74 75 82 77 59 49 41 45 59 49 93 85 83 75 60 57 46 44 53 55 52 50 51
7 9 13 16 22 26 34 37 37 77 70 85 93 94 93 98 77 92 100 96 88 68 75 86 78 79 76 80 71 58 52 41 42 54 69 70 75 93 88 96 89 77 72 68 73 77 58
23 40 48 47 53 51 49 48 53 90 81 94 93 93 82 95 82 97 92 96 89 85 83 83 87 86 83 85 74 62 55 54 42 36 32 49 69 57 55 60 55 58 52 58 60 64 75
51 52 52 51 47 34 24 24 25 88 93 98 84 84 91 91 96 78 100 97 88 86 90 72 79 85 87 84 72 70 72 70 64 62 60 92 73 68 63 42 37 39 40 41 47 62 61
78 43 32 26 28 37 42 50 64 86 95 87 66 82 100 77 86 97 86 93 78 88 87 82 82 94 93 81 94 86 84 72 72 57 51 88 89 83 88 64 60 59 36 31 36 40 29
100 93 88 85 91 97 97 97 99 100 95 79 81 89 100 92 96 64 88 96 88 83 76 89 92 91 93 94 89 88 94 82 76 69 59 60 80 92 87 81 76 39 27 26 34 28 22
92 95 95 96 96 96 95 96 96 96 96 95 91 98 96 91 91 94 97 83 88 94 95 88 82 96 96 98 96 96 86 81 71 64 62 59 68 81 96 92 60 43 27 26 34 26 22
96 97 97 97 96 96 96 97 97 96 96 100 92 90 99 97 87 84 91 97 92 93 97 83 97 94 97 97 97 94 84 79 76 74 69 71 78 69 98 90 81 48 40 37 34 32 42
92 91 91 92 94 96 95 96 96 97 98 97 93 91 100 99 96 85 83 85 86 94 93 94 95 96 97 96 94 97 92 83 80 85 100 90 92 86 97 95 68 57 54 52 63 56 52
91 96 93 93 96 94 95 95 97 96 97 97 92 90 95 98 86 81 88 93 96 94 93 93 97 96 97 98 96 95 85 78 73 78 91 76 94 97 100 99 83 57 60 63 56 46 47
94 99 97 95 94 97 96 95 96 97 96 97 96 94 98 98 98 92 82 96 94 94 97 94 88 93 94 92 93 86 75 73 69 81 58 78 68 64 72 62 58 58 66 50 36 47 46

GFSGBSN_700_rhum_075.txt.gz
RH
7 8 8 8 8 8 7 7 7 6 6 6 6 7 7 12 22 21 20 20 23 24 24 23 19 16 15 33 53 42 31 24 27 27 25 15 39 35 30 24 21 24 22 21 19 19 20
5 5 5 5 5 6 6 6 6 6 6 6 5 5 5 5 5 15 22 23 22 23 19 19 23 26 16 18 39 47 42 31 21 23 34 32 41 35 29 27 25 23 23 24 22 20 20
6 6 6 5 5 5 5 5 5 5 5 4 4 4 4 4 4 4 5 5 5 6 6 10 11 23 26 24 16 37 47 33 26 17 37 49 45 37 34 33 29 28 26 24 25 22 21
3 3 4 5 5 5 5 5 4 5 4 4 4 3 3 3 2 2 5 5 4 3 6 11 8 3 12 13 16 19 33 47 24 20 13 56 56 48 44 38 35 33 30 28 23 22 21
3 3 3 3 3 3 4 4 4 4 4 3 3 3 3 2 2 2 2 2 2 2 2 2 2 2 4 12 16 20 29 31 37 18 13 43 49 46 45 42 38 33 28 24 24 22 22
5 5 4 4 3 3 3 3 3 3 3 2 2 2 2 2 2 2 2 2 2 2 2 2 2 2 14 13 13 14 20 38 46 29 21 14 27 39 39 38 35 29 26 26 25 22 23
6 6 7 7 5 4 4 4 4 3 3 2 2 2 2 2 2 1 1 1 2 5 2 3 8 2 2 11 2 12 30 35 38 49 44 27 34 31 30 31 33 32 27 24 23 22 22
8 8 8 8 9 7 6 5 5 4 4 3 3 2 2 2 2 2 1 1 1 2 2 2 1 1 1 2 3 4 52 44 47 57 68 34 43 37 37 37 39 36 32 28 26 23 27
8 9 10 9 9 9 9 8 7 5 5 4 3 3 2 3 2 2 3 2 2 2 2 3 4 4 5 6 7 6 23 60 64 74 71 70 42 47 42 43 40 39 38 33 29 26 26
8 9 11 11 10 9 10 9 9 7 7 6 5 4 3 3 3 5 26 2 2 3 13 45 14 12 16 28 17 11 10 46 54 59 60 92 58 48 52 47 41 42 37 34 32 30 28
12 12 12 12 11 10 10 9 9 8 8 7 6 6 5 5 4 4 4 4 4 5 32 26 30 11 26 31 44 46 16 48 62 51 60 74 80 56 40 43 42 42 38 34 32 34 32
19 18 17 16 13 11 9 9 8 8 8 8 7 6 6 6 6 7 6 6 8 59 34 26 40 45 46 57 53 44 21 23 60 60 61 61 77 71 46 39 47 43 37 36 33 34 33
24 24 27 26 21 17 11 10 9 8 8 7 7 6 7 8 10 10 9 17 74 42 28 24 37 43 42 48 54 59 67 38 40 47 52 63 68 57 52 44 36 40 38 37 39 37 37
27 30 52 54 53 37 19 16 38 23 10 8 7 7 8 8 9 10 12 79 59 27 31 40 45 40 36 46 53 57 54 56 42 48 34 34 49 60 51 51 45 42 39 35 46 45 33
33 36 43 40 27 26 21 27 67 48 13 9 9 9 8 9 10 75 78 95 30 37 31 46 42 27 25 43 53 53 53 58 49 44 45 36 47 49 58 56 61 54 40 34 33 46 44
36 54 54 93 93 20 24 21 33 47 26 14 12 11 13 23 67 78 91 81 54 53 72 61 33 35 36 45 47 47 59 81 82 80 49 45 38 36 54 63 54 52 52 40 39 52 52
87 66 57 100 60 62 41 49 49 70 62 28 15 51 94 25 61 91 99 91 66 64 75 69 48 54 45 55 54 47 94 86 69 73 67 46 52 54 46 68 52 47 44 52 44 40 45
95 99 53 97 100 100 43 56 100 91 94 33 32 100 98 70 75 88 100 99 78 67 61 69 73 75 68 57 61 53 50 77 78 74 76 49 69 52 49 44 54 51 40 50 47 47 44
92 100 95 97 96 95 61 92 100 100 99 63 90 95 70 81 94 94 100 94 89 76 63 60 65 58 59 64 62 54 52 73 66 68 86 81 57 52 61 57 49 48 48 48 50 51 61
64 94 88 94 98 100 74 76 99 98 92 54 89 99 95 74 86 94 95 92 85 88 76 61 58 59 58 66 63 62 60 58 67 70 52 75 85 55 40 56 58 44 50 60 51 50 45
95 99 94 93 68 48 31 66 98 97 92 84 89 88 96 98 93 97 96 95 85 82 84 79 81 61 72 63 56 55 56 60 64 62 60 83 94 87 74 79 64 61 57 52 51 50 50
98 100 98 96 93 59 36 33 92 97 87 90 86 91 100 100 98 85 86 85 99 68 66 76 72 62 58 62 64 61 63 71 67 66 69 72 57 63 80 61 59 58 59 56 50 47 46
94 95 94 97 96 98 86 51 64 90 76 82 88 88 91 99 92 98 100 91 87 98 87 91 80 66 82 83 90 94 98 95 93 81 78 82 66 50 57 47 58 59 53 50 51 51 48
90 88 96 97 97 95 97 94 56 67 69 69 77 77 100 94 97 85 87 97 92 95 80 83 96 80 88 85 98 99 99 96 94 89 89 83 73 64 60 65 59 40 42 42 43 44 44
86 87 93 97 96 97 97 97 89 54 61 66 74 79 84 92 94 81 83 92 99 94 85 92 94 95 84 82 92 97 94 95 94 86 87 85 75 72 70 51 42 37 35 35 36 34 45
95 95 96 96 94 96 97 95 96 94 38 53 66 74 92 96 94 84 72 72 88 94 90 84 85 96 86 94 96 91 65 68 64 69 80 84 82 73 67 59 48 36 55 65 50 39 62
96 94 94 97 95 98 98 93 94 95 74 61 89 95 97 96 65 91 82 76 76 95 92 97 92 82 86 94 98 89 69 67 67 71 91 93 97 82 73 64 48 48 52 61 51 64 87
93 95 96 97 98 97 98 98 95 95 96 97 82 95 94 88 68 63 83 92 94 96 98 90 98 94 94 97 98 89 78 76 58 68 86 86 93 91 86 92 65 56 59 63 76 98 98
91 94 93 97 97 95 90 97 95 97 95 98 96 87 96 98 75 69 50 90 93 97 95 93 90 97 90 94 94 92 86 76 66 59 81 85 79 71 63 58 72 79 91 98 97 92 88

GFSGBSN_700_rhum_081.txt.gz
RH
28 28 28 22 17 13 7 6 6 5 5 4 4 5 5 6 6 6 5 5 6 6 20 25 25 25 20 19 24 28 32 36 35 33 29 30 26 24 29 29 36 35 29 26 23 22 21
27 28 29 25 22 21 18 7 5 6 6 5 4 4 4 4 4 4 4 4 4 4 8 11 10 14 14 18 18 24 28 32 38 35 23 29 29 25 43 41 38 36 33 27 24 21 20
6 6 7 7 7 7 7 11 5 4 3 5 5 4 4 4 3 3 3 3 3 3 4 6 7 9 15 16 10 18 24 26 29 44 44 27 33 45 45 42 39 36 32 28 26 24 24
6 6 5 5 4 4 4 4 4 4 3 2 3 3 3 3 3 3 3 2 2 2 2 3 9 10 11 8 7 5 7 16 22 31 46 42 47 52 48 44 41 39 36 34 27 24 23
5 5 5 5 4 4 4 4 4 4 4 3 3 2 2 2 2 3 2 2 2 2 2 2 2 5 9 6 5 9 13 16 18 19 36 39 44 55 50 48 46 43 42 34 32 30 28
3 4 4 5 4 4 4 5 5 5 4 5 4 3 3 2 2 2 2 2 2 2 2 2 2 3 4 10 10 5 7 7 11 11 23 32 36 52 56 57 55 50 41 35 36 28 29
5 5 6 6 5 5 5 6 7 7 6 6 6 5 4 4 3 3 2 2 3 15 8 5 14 8 22 14 5 8 11 30 9 8 20 31 35 32 31 50 53 49 44 41 37 34 35
8 8 8 7 7 7 6 6 6 8 8 8 7 7 5 5 4 4 3 3 5 14 5 3 2 2 4 10 7 6 15 31 36 26 31 39 37 34 35 30 32 34 38 40 39 36 36
5 5 4 4 5 6 7 7 8 8 10 9 9 8 8 6 5 4 4 12 18 8 14 2 2 2 3 5 4 4 6 31 47 63 47 50 44 42 46 40 39 44 41 44 42 36 35
5 4 4 4 4 4 7 9 7 10 12 11 10 9 9 8 7 7 11 12 9 6 30 7 19 15 10 11 19 19 15 16 26 48 64 57 52 59 60 60 54 51 53 58 79 89 75
7 7 6 5 5 4 6 10 14 11 15 14 12 11 10 9 8 9 35 17 8 12 99 46 35 37 21 21 50 37 36 25 20 25 44 53 51 59 62 48 60 57 64 72 88 97 99
8 8 9 9 7 5 6 15 20 17 20 19 15 13 12 12 8 9 7 11 11 84 83 38 27 23 18 27 32 54 39 19 24 31 40 44 44 51 57 65 72 78 92 83 88 99 99
12 10 9 9 9 5 4 12 25 25 55 56 41 36 12 12 14 15 12 17 78 99 25 27 28 38 36 35 33 47 46 39 26 35 31 39 51 53 56 64 67 96 99 99 99 99 92
13 15 10 8 8 7 5 8 24 30 75 93 52 57 38 16 15 29 29 74 100 44 40 33 35 34 32 29 31 39 46 52 51 36 37 40 45 40 52 59 58 73 99 97 88 92 75
10 15 13 9 8 8 10 20 51 38 57 77 94 100 69 28 15 44 53 98 69 21 41 41 32 29 30 21 24 40 45 46 56 53 42 42 42 39 34 37 52 78 96 80 99 98 99
9 14 13 8 12 19 28 63 90 80 95 79 97 96 47 26 17 59 100 93 44 60 51 51 45 36 30 26 32 35 34 68 69 62 57 51 57 45 45 45 61 71 72 93 99 95 96
8 13 12 12 29 28 75 80 75 91 91 81 90 83 79 37 19 94 99 98 49 49 61 62 58 51 44 50 39 38 61 80 66 67 64 75 83 61 53 55 58 82 91 98 99 98 99
8 13 11 24 43 54 63 84 81 94 77 92 88 94 93 68 74 76 100 100 68 78 69 65 57 55 59 60 53 48 47 69 72 67 66 85 83 62 49 41 54 70 82 98 99 97 79
7 13 12 26 51 72 64 81 79 91 79 100 94 77 64 97 94 100 98 86 82 59 71 73 65 55 46 54 54 49 46 59 64 59 54 77 77 72 64 62 74 94 87 94 99 99 98
7 13 12 26 64 84 80 74 86 88 88 95 97 80 70 92 97 90 85 86 83 66 60 75 74 61 53 51 52 50 48 65 70 59 50 49 52 77 92 99 97 99 99 99 99 99 86
6 14 11 28 71 92 85 88 84 82 92 99 98 79 88 92 63 96 95 96 97 90 86 72 60 66 65 57 53 50 47 50 54 68 60 58 58 65 72 90 74 95 99 96 99 98 99
9 13 12 26 84 82 88 96 95 71 85 99 100 89 81 86 98 91 83 78 72 78 98 90 77 67 66 59 56 59 59 58 71 62 72 71 64 62 78 69 60 68 87 88 94 98 97
10 10 14 59 92 79 82 96 97 94 81 81 92 88 76 68 90 97 88 90 73 64 59 91 86 84 74 70 65 60 60 58 63 66 82 78 82 71 70 59 61 68 51 65 71 62 83
9 12 50 91 95 81 87 98 97 96 72 56 78 72 88 63 79 83 80 98 97 96 99 89 95 97 80 70 81 78 60 64 57 60 66 86 84 79 76 64 78 50 44 50 50 46 49
8 44 86 91 88 78 82 92 97 96 96 36 51 82 84 75 63 70 83 94 96 91 92 97 84 94 90 67 76 92 66 65 57 48 58 52 63 80 64 68 60 36 40 41 37 39 42
19 74 80 80 81 92 88 82 96 96 95 84 40 69 88 87 69 70 92 96 92 84 79 76 78 78 74 59 71 96 76 74 65 64 39 41 50 64 69 84 79 44 38 41 39 43 59
48 77 79 82 91 91 87 86 85 90 98 92 70 52 90 100 73 94 90 90 86 97 91 87 78 76 80 86 96 87 81 66 72 72 71 79 83 86 87 86 75 50 48 55 47 82 74
70 75 81 93 97 96 89 90 90 88 96 98 88 94 71 85 66 79 85 89 96 99 98 90 85 76 89 99 86 79 81 60 69 67 96 89 89 93 90 90 86 60 68 57 72 94 80
67 73 81 91 84 84 94 96 96 95 96 98 96 98 89 69 56 60 67 74 80 87 96 99 97 99 99 91 86 99 73 76 71 95 93 97 79 81 74 69 69 63 66 68 78 96 86